Tracking 30143 objects as of 20-Jan-2025
HD Live streaming from Space Station
objects crossing your sky now

ARIANE 5 R/B

Track ARIANE 5 R/B now!


NORAD ID: 36746
Int'l Code: 2010-032C
Perigee: 261.5 km
Apogee: 32,275.1 km
Inclination: 1.5 °
Period: 565.0 minutes
Semi major axis: 22639 km
RCS: 22.3476 m2 (large)
Launch date: June 26, 2010
Source: France (FR)
Launch site: FRENCH GUIANA (FRGUI)

Note: This is a ROCKET BODY
Your satellite tracking list
Your tracking list is empty




NASA's NSSDC Master Catalog

Two Line Element Set (TLE):
1 36746U 10032C   25020.26823381  .00003889  00000-0  10535-2 0  9998
2 36746   1.4501 253.9497 7070378 181.8094 172.5343  2.54863982128307
Source of the keplerian elements: AFSPC